Weather History for North Myrtle Beach, SC

Change the Weather History Date:

Wednesday, October 10, 2012

  Actual Average Record
Temperature  
Mean Temperature 61 °F 67 °F  
Max Temperature 73 °F 77 °F 91 °F (2009)
Min Temperature 49 °F 58 °F 35 °F (2000)
Degree Days  
Heating Degree Days 4 1  
Month to date heating degree days 18 10  
Since 1 July heating degree days 18 14  
Cooling Degree Days 0 4  
Month to date cooling degree days 72 50  
Year to date cooling degree days 2073 1834  
Growing Degree Days 10 (Base 50)    
Moisture  
Dew Point 54 °F    
Average Humidity 79    
Maximum Humidity 100    
Minimum Humidity 57    
Precipitation  
Precipitation 0.00 in 0.13 in 0.46 in (2002)
Month to date precipitation 0.89 1.41  
Year to date precipitation 32.23 43.04  
Sea Level Pressure  
Sea Level Pressure 30.09 in    
Wind  
Wind Speed 3 mph (WNW)    
Max Wind Speed 13 mph    
Max Gust Speed 16 mph    
Visibility 4 miles    
Events Fog    
T = Trace of Precipitation, MM = Missing Value Source: NWS Daily Summary

Daily Weather History Graph

Daily Weather History Graph

Search for Another Location

Airport:

Trip Planner

Search our weather history database for the weather conditions in past years. The results will help you decide how hot, cold, wet, or windy it might be!

Date:

Astronomy

Oct. 10, 2012 Rise Set
Actual Time 7:16 AM EDT 6:46 PM EDT
Civil Twilight 6:51 AM EDT 7:11 PM EDT
Nautical Twilight 6:22 AM EDT 7:40 PM EDT
Astronomical Twilight 5:53 AM EDT 8:09 PM EDT
Moon 2:04 AM EDT (10/10) 3:36 PM EDT (10/10)
Length of Visible Light 12h 20m
Length of Day
11h 30m
Waning Crescent, 27% of the Moon is Illuminated
Oct 10
Waning Crescent
Oct 15
New
Oct 21
First Quarter
Oct 29
Full
Nov 6
Last Quarter

Hourly Weather History & Observations

Time (EDT) Temp. Dew Point Humidity Pressure Visibility Wind Dir Wind Speed Gust Speed Precip Events Conditions
12:20 AM 55.4 °F 53.6 °F 94% 30.11 in 8.0 mi WNW 3.5 mph - N/A   Overcast
12:53 AM 55.9 °F 54.0 °F 93% 30.11 in 9.0 mi Calm Calm - N/A   Overcast
1:34 AM 53.6 °F 53.6 °F 100% 30.10 in 9.0 mi Calm Calm - N/A   Scattered Clouds
1:53 AM 54.0 °F 52.0 °F 93% 30.10 in 9.0 mi Calm Calm - N/A   Clear
2:22 AM 51.8 °F 51.8 °F 100% 30.10 in 1.5 mi Calm Calm - N/A   Clear
2:44 AM 53.6 °F 51.8 °F 94% 30.09 in 2.0 mi Calm Calm - N/A   Clear
2:53 AM 53.1 °F 52.0 °F 96% 30.09 in 2.5 mi Calm Calm - N/A   Partly Cloudy
3:05 AM 53.6 °F 51.8 °F 94% 30.09 in 1.8 mi Calm Calm - N/A   Mostly Cloudy
3:17 AM 51.8 °F 51.8 °F 100% 30.09 in 0.2 mi West 3.5 mph - N/A Fog Fog
3:38 AM 51.8 °F 51.8 °F 100% 30.08 in 0.5 mi WNW 3.5 mph - N/A Fog Fog
3:48 AM 51.8 °F 51.8 °F 100% 30.08 in 1.0 mi WNW 3.5 mph - N/A   Mist
3:53 AM 51.1 °F 51.1 °F 100% 30.09 in 0.8 mi WNW 4.6 mph - N/A   Mist
4:13 AM 51.8 °F 51.8 °F 100% 30.08 in 0.2 mi Calm Calm - N/A Fog Fog
4:53 AM 51.1 °F 51.1 °F 100% 30.08 in 0.2 mi Calm Calm - N/A Fog Fog
5:26 AM 50.0 °F 50.0 °F 100% 30.08 in 0.5 mi Calm Calm - N/A Fog Fog
5:53 AM 50.0 °F 48.9 °F 96% 30.08 in 0.5 mi WNW 3.5 mph - N/A Fog Fog
6:21 AM 48.2 °F 48.2 °F 100% 30.08 in 0.2 mi West 3.5 mph - N/A Fog Fog
6:53 AM 48.9 °F 48.9 °F 100% 30.10 in 0.2 mi WSW 3.5 mph - N/A Fog Fog
7:53 AM 50.0 °F 50.0 °F 100% 30.12 in 0.2 mi Calm Calm - N/A Fog Fog
8:53 AM 52.0 °F 52.0 °F 100% 30.13 in 0.2 mi West 4.6 mph - N/A Fog Fog
9:01 AM 51.8 °F 51.8 °F 100% 30.13 in 1.0 mi WNW 3.5 mph - N/A   Mist
9:18 AM 53.6 °F 51.8 °F 94% 30.13 in 3.0 mi NNW 5.8 mph - N/A   Overcast
9:36 AM 53.6 °F 53.6 °F 100% 30.13 in 6.0 mi NNW 4.6 mph - N/A   Overcast
9:53 AM 53.1 °F 52.0 °F 96% 30.14 in 9.0 mi NW 4.6 mph - N/A   Overcast
10:05 AM 53.6 °F 51.8 °F 94% 30.13 in 10.0 mi WNW 6.9 mph - N/A   Overcast
10:53 AM 59.0 °F 53.1 °F 81% 30.13 in 10.0 mi NW 6.9 mph - N/A   Mostly Cloudy
11:00 AM 59.0 °F 51.8 °F 77% 30.12 in 10.0 mi WNW 6.9 mph - N/A   Scattered Clouds
11:53 AM 64.9 °F 53.1 °F 65% 30.12 in 10.0 mi NW 8.1 mph - N/A   Clear
12:53 PM 68.0 °F 54.0 °F 61% 30.09 in 10.0 mi NW 6.9 mph 16.1 mph N/A   Clear
1:53 PM 70.0 °F 55.0 °F 59% 30.05 in 10.0 mi NW 8.1 mph - N/A   Clear
2:53 PM 72.0 °F 55.9 °F 57% 30.02 in 10.0 mi Variable 6.9 mph - N/A   Clear
3:53 PM 72.0 °F 55.0 °F 55% 30.01 in 10.0 mi WNW 9.2 mph - N/A   Clear
4:53 PM 72.0 °F 55.9 °F 57% 30.00 in 10.0 mi NW 8.1 mph - N/A   Clear
5:53 PM 71.1 °F 57.0 °F 61% 30.01 in 10.0 mi NNW 5.8 mph - N/A   Clear
6:53 PM 64.9 °F 59.0 °F 81% 30.03 in 10.0 mi Calm Calm - N/A   Clear
7:53 PM 61.0 °F 57.9 °F 90% 30.06 in 7.0 mi Calm Calm - N/A   Clear
8:53 PM 59.0 °F 57.9 °F 96% 30.08 in 5.0 mi Calm Calm - N/A   Clear
9:13 PM 57.2 °F 57.2 °F 100% 30.08 in 1.2 mi Calm Calm - N/A   Clear
9:25 PM 57.2 °F 57.2 °F 100% 30.09 in 3.0 mi Calm Calm - N/A   Clear
9:39 PM 57.2 °F 57.2 °F 100% 30.09 in 1.8 mi Calm Calm - N/A   Clear
9:53 PM 57.0 °F 57.0 °F 100% 30.10 in 2.0 mi Calm Calm - N/A   Clear
9:58 PM 57.2 °F 55.4 °F 94% 30.09 in 0.8 mi Calm Calm - N/A   Clear
10:08 PM 57.2 °F 57.2 °F 100% 30.10 in 2.0 mi Calm Calm - N/A   Clear
10:17 PM 57.2 °F 55.4 °F 94% 30.10 in 0.8 mi Calm Calm - N/A   Clear
10:32 PM 55.4 °F 55.4 °F 100% 30.10 in 1.8 mi Calm Calm - N/A   Clear
10:53 PM 55.9 °F 55.0 °F 97% 30.11 in 1.2 mi Calm Calm - N/A   Partly Cloudy
11:01 PM 55.4 °F 55.4 °F 100% 30.11 in 3.0 mi Calm Calm - N/A   Clear
11:12 PM 55.4 °F 55.4 °F 100% 30.11 in 1.8 mi Calm Calm - N/A   Clear
11:21 PM 55.4 °F 55.4 °F 100% 30.11 in 0.8 mi Calm Calm - N/A   Clear
11:35 PM 55.4 °F 55.4 °F 100% 30.11 in 0.2 mi Calm Calm - N/A Fog Fog
11:48 PM 55.4 °F 55.4 °F 100% 30.11 in 1.0 mi Calm Calm - N/A   Clear
11:53 PM 54.0 °F 54.0 °F 100% 30.12 in 1.0 mi Calm Calm - N/A   Clear